• Em Portugal
  • Lista de países
  • Para 7 dias
  • Temperatura da água
  • Mapas de satélite
  • Mapa do tempo
  • Widgets de tempo
  • user-avatar
    Iniciar Sessão

    Previsão horária em Mörön

    Hoje, 22 Setembro, Sábado

    Tempo Temperatura Precipitação Vento Pressão Humidade
    00:00 -1°C° 0 mm 2 m/s 622 mmHg 47%
    01:00 -1°C° 0 mm 2 m/s 622 mmHg 47%
    02:00 -1°C° 0 mm 2 m/s 622 mmHg 47%
    03:00 -2°C° 0 mm 2 m/s 622 mmHg 47%
    04:00 0°C° 0 mm 1 m/s 623 mmHg 47%
    05:00 0°C° 0 mm 1 m/s 623 mmHg 47%
    06:00 +1°C° 0 mm 1 m/s 623 mmHg 46%
    07:00 +1°C° 0 mm 2 m/s 624 mmHg 44%
    08:00 +3°C° 0 mm 2 m/s 624 mmHg 39%
    09:00 +6°C° 0 mm 1 m/s 624 mmHg 35%
    10:00 +8°C° 0 mm 1 m/s 624 mmHg 31%
    11:00 +9°C° 0 mm 1 m/s 624 mmHg 29%
    12:00 +10°C° 0 mm 1 m/s 624 mmHg 27%
    13:00 +11°C° 0 mm 1 m/s 625 mmHg 26%
    14:00 +11°C° 0 mm 1 m/s 625 mmHg 26%
    15:00 +12°C° 0 mm 1 m/s 625 mmHg 26%
    16:00 +12°C° 0 mm 1 m/s 625 mmHg 26%
    17:00 +10°C° 0 mm 1 m/s 624 mmHg 31%
    18:00 +8°C° 0 mm 1 m/s 623 mmHg 36%
    19:00 +6°C° 0 mm 1 m/s 623 mmHg 42%
    20:00 +5°C° 0 mm 1 m/s 623 mmHg 43%
    21:00 +5°C° 0 mm 1 m/s 623 mmHg 45%
    22:00 +4°C° 0 mm 1 m/s 623 mmHg 47%
    23:00 +4°C° 0 mm 1 m/s 623 mmHg 47%

    Amanhã, 23 Setembro, Domingo

    Tempo Temperatura Precipitação Vento Pressão Humidade
    00:00 +3°C° 0 mm 1 m/s 622 mmHg 48%
    01:00 +3°C° 0 mm 1 m/s 622 mmHg 48%
    02:00 +3°C° 0 mm 1 m/s 622 mmHg 48%
    03:00 +3°C° 0 mm 1 m/s 622 mmHg 48%
    04:00 +3°C° 0 mm 1 m/s 622 mmHg 48%
    05:00 +3°C° 0 mm 1 m/s 622 mmHg 48%
    06:00 +4°C° 0 mm 1 m/s 622 mmHg 48%
    07:00 +4°C° 0 mm 1 m/s 622 mmHg 48%
    08:00 +6°C° 0 mm 1 m/s 622 mmHg 43%
    09:00 +8°C° 0 mm 1 m/s 622 mmHg 39%
    10:00 +10°C° 0 mm 1 m/s 622 mmHg 35%
    11:00 +11°C° 0 mm 1 m/s 622 mmHg 33%
    12:00 +12°C° 0 mm 2 m/s 623 mmHg 32%
    13:00 +14°C° 0 mm 2 m/s 623 mmHg 31%
    14:00 +14°C° 0 mm 2 m/s 622 mmHg 32%
    15:00 +14°C° 0 mm 2 m/s 622 mmHg 33%
    16:00 +15°C° 0 mm 2 m/s 622 mmHg 33%
    17:00 +13°C° 0 mm 2 m/s 622 mmHg 39%
    18:00 +11°C° 0 mm 1 m/s 621 mmHg 44%
    19:00 +9°C° 0 mm 1 m/s 621 mmHg 49%
    20:00 +8°C° 0 mm 1 m/s 621 mmHg 51%
    21:00 +8°C° 0 mm 1 m/s 620 mmHg 52%
    22:00 +7°C° 0 mm 1 m/s 620 mmHg 53%
    23:00 +7°C° 0 mm 1 m/s 620 mmHg 54%

    Depois de amanhã, 24 Setembro, Segunda-feira

    Tempo Temperatura Precipitação Vento Pressão Humidade
    00:00 +6°C° 0 mm 1 m/s 620 mmHg 54%
    01:00 +6°C° 0 mm 1 m/s 620 mmHg 55%
    02:00 +6°C° 0 mm 1 m/s 619 mmHg 55%
    03:00 +5°C° 0 mm 1 m/s 619 mmHg 56%
    04:00 +5°C° 0 mm 1 m/s 619 mmHg 56%
    05:00 +5°C° 0 mm 1 m/s 619 mmHg 57%
    06:00 +5°C° 0 mm 1 m/s 619 mmHg 57%
    07:00 +5°C° 0 mm 1 m/s 619 mmHg 58%
    08:00 +7°C° 0 mm 1 m/s 620 mmHg 52%
    09:00 +9°C° 0 mm 1 m/s 620 mmHg 47%
    10:00 +12°C° 0 mm 1 m/s 621 mmHg 41%
    11:00 +13°C° 0 mm 1 m/s 620 mmHg 38%
    12:00 +14°C° 0 mm 1 m/s 620 mmHg 36%
    13:00 +15°C° 0 mm 1 m/s 620 mmHg 34%
    14:00 +15°C° 0 mm 1 m/s 620 mmHg 33%
    15:00 +16°C° 0 mm 1 m/s 620 mmHg 33%
    16:00 +16°C° 0 mm 1 m/s 620 mmHg 33%
    17:00 +14°C° 0.1 mm 1 m/s 619 mmHg 40%
    18:00 +12°C° 0.1 mm 1 m/s 619 mmHg 46%
    19:00 +10°C° 0.1 mm 1 m/s 619 mmHg 53%
    20:00 +9°C° 0 mm 1 m/s 619 mmHg 56%
    21:00 +8°C° 0 mm 1 m/s 619 mmHg 60%
    22:00 +8°C° 0 mm 1 m/s 619 mmHg 63%
    23:00 +7°C° 0 mm 1 m/s 619 mmHg 65%

    25 Setembro, Terça-feira

    Tempo Temperatura Precipitação Vento Pressão Humidade
    00:00 +7°C° 0 mm 1 m/s 618 mmHg 67%
    01:00 +6°C° 0 mm 1 m/s 618 mmHg 68%
    02:00 +6°C° 0 mm 1 m/s 618 mmHg 69%
    03:00 +5°C° 0 mm 0 m/s 618 mmHg 70%
    04:00 +4°C° 0 mm 0 m/s 618 mmHg 70%
    05:00 +5°C° 0 mm 1 m/s 618 mmHg 71%
    06:00 +6°C° 0 mm 1 m/s 618 mmHg 71%
    07:00 +6°C° 0 mm 1 m/s 618 mmHg 72%
    08:00 +7°C° 0 mm 1 m/s 618 mmHg 68%
    09:00 +8°C° 0 mm 1 m/s 618 mmHg 64%
    10:00 +8°C° 0 mm 2 m/s 619 mmHg 60%
    11:00 +9°C° 0 mm 2 m/s 618 mmHg 58%
    12:00 +10°C° 0 mm 2 m/s 618 mmHg 56%
    13:00 +12°C° 0 mm 2 m/s 618 mmHg 53%
    14:00 +12°C° 0 mm 2 m/s 618 mmHg 54%
    15:00 +12°C° 0 mm 2 m/s 618 mmHg 55%
    16:00 +12°C° 0 mm 2 m/s 618 mmHg 56%
    17:00 +10°C° 0.2 mm 2 m/s 617 mmHg 64%
    18:00 +9°C° 0.2 mm 2 m/s 617 mmHg 71%
    19:00 +8°C° 0.2 mm 2 m/s 617 mmHg 79%
    20:00 +7°C° 0.2 mm 2 m/s 617 mmHg 81%
    21:00 +7°C° 0.2 mm 2 m/s 616 mmHg 84%
    22:00 +6°C° 0.2 mm 2 m/s 616 mmHg 87%
    23:00 +6°C° 0.1 mm 2 m/s 616 mmHg 89%

    26 Setembro, Quarta-feira

    Tempo Temperatura Precipitação Vento Pressão Humidade
    00:00 +5°C° 0.1 mm 2 m/s 615 mmHg 91%
    01:00 +5°C° 0.1 mm 2 m/s 615 mmHg 93%
    02:00 +5°C° 0.5 mm 2 m/s 614 mmHg 94%
    03:00 +5°C° 0.5 mm 2 m/s 614 mmHg 94%
    04:00 +5°C° 0.5 mm 2 m/s 614 mmHg 95%
    05:00 +4°C° 1.3 mm 3 m/s 614 mmHg 95%
    06:00 +4°C° 1.3 mm 3 m/s 614 mmHg 94%
    07:00 +4°C° 1.3 mm 3 m/s 614 mmHg 94%
    08:00 +4°C° 1.3 mm 3 m/s 614 mmHg 93%
    09:00 +4°C° 1.3 mm 3 m/s 614 mmHg 91%
    10:00 +4°C° 1.3 mm 4 m/s 614 mmHg 89%
    11:00 +4°C° 0.7 mm 4 m/s 615 mmHg 87%
    12:00 +5°C° 0.7 mm 4 m/s 615 mmHg 85%
    13:00 +5°C° 0.7 mm 5 m/s 615 mmHg 83%
    14:00 +5°C° 0.3 mm 5 m/s 616 mmHg 82%
    15:00 +5°C° 0.3 mm 5 m/s 616 mmHg 81%
    16:00 +5°C° 0.3 mm 5 m/s 617 mmHg 81%
    17:00 +5°C° 0.3 mm 4 m/s 617 mmHg 82%
    18:00 +4°C° 0.3 mm 3 m/s 618 mmHg 84%
    19:00 +4°C° 0.3 mm 3 m/s 619 mmHg 86%
    20:00 +3°C° 0.3 mm 3 m/s 619 mmHg 87%
    21:00 +4°C° 0.3 mm 2 m/s 620 mmHg 87%
    22:00 +4°C° 0.3 mm 2 m/s 621 mmHg 88%
    23:00 +3°C° 0 mm 2 m/s 621 mmHg 88%

    27 Setembro, Quinta-feira

    Tempo Temperatura Precipitação Vento Pressão Humidade
    00:00 +3°C° 0 mm 2 m/s 621 mmHg 89%
    01:00 +1°C° 0 mm 3 m/s 621 mmHg 90%
    02:00 +1°C° 0 mm 3 m/s 622 mmHg 90%
    03:00 0°C° 0 mm 3 m/s 622 mmHg 89%
    04:00 0°C° 0 mm 3 m/s 622 mmHg 89%
    05:00 0°C° 0 mm 3 m/s 623 mmHg 88%
    06:00 -1°C° 0 mm 3 m/s 623 mmHg 87%
    07:00 -1°C° 0 mm 3 m/s 624 mmHg 85%
    08:00 +1°C° 0 mm 3 m/s 624 mmHg 78%
    09:00 +2°C° 0 mm 3 m/s 624 mmHg 70%
    10:00 +4°C° 0 mm 4 m/s 625 mmHg 62%
    11:00 +5°C° 0 mm 4 m/s 625 mmHg 59%
    12:00 +6°C° 0 mm 4 m/s 625 mmHg 56%
    13:00 +8°C° 0 mm 5 m/s 625 mmHg 53%
    14:00 +8°C° 0 mm 5 m/s 626 mmHg 53%
    15:00 +8°C° 0 mm 5 m/s 626 mmHg 53%
    16:00 +8°C° 0 mm 5 m/s 626 mmHg 52%
    17:00 +6°C° 0 mm 5 m/s 626 mmHg 59%
    18:00 +4°C° 0 mm 4 m/s 626 mmHg 66%
    19:00 +3°C° 0 mm 3 m/s 626 mmHg 73%
    20:00 +2°C° 0 mm 3 m/s 626 mmHg 75%
    21:00 +2°C° 0 mm 3 m/s 627 mmHg 77%
    22:00 +1°C° 0 mm 3 m/s 627 mmHg 79%
    23:00 +1°C° 0 mm 3 m/s 627 mmHg 80%
    Mostrar mais